Welcome to the New NWS' Forecast!
Most changes are behind the scenes, but click here for differences you might notice.

Regional Weather Roundup (RWR)

Issued by Gray - Portland, ME (GYX)

                            
036 
ASUS41 KGYX 161105
RWRGYX
WEATHER ROUNDUP FOR MAINE AND NEW HAMPSHIRE
NATIONAL WEATHER SERVICE GRAY ME
700 AM EDT THU AUG 16 2018

MEZ002-005-006-010-012-015-018-020-021-024-026-027-029-161200-
MAINE
  
CITY           SKY/WX    TMP DP  RH WIND       PRES   REMARKS
PORTLAND       PTSUNNY   71  68  90 W5        29.94R                  
SANFORD        FAIR      70  67  90 W5        29.95R                  
BAR HARBOR     FAIR      65  65 100 CALM      29.92R                  
WISCASSET      FAIR      68  68 100 CALM      29.94R                  
ROCKLAND       CLOUDY    66  66 100 W6        29.92R FOG              
FRYEBURG       PTSUNNY   68  68 100 CALM      29.96R                  
LEWISTONAUBURN FAIR      69  67  93 CALM      29.95R                  
AUGUSTA        PTSUNNY   70  65  84 CALM      29.94R                  
WATERVILLE     FAIR      66  65  96 CALM      29.90R                  
BANGOR         FAIR      67  66  97 NW5       29.92R FOG              
GREENVILLE       N/A     61  59  93 NW7       29.95R                  
MILLINOCKET    FAIR      64  57  78 N5        29.94R                  
HOULTON        FAIR      59  57  93 CALM      29.90R                  
PRESQUE ISLE   FAIR      58  54  86 W5        29.93R                  
FRENCHVILLE    FAIR      57  51  80 NW9       29.92R                  
CARIBOU        FAIR      60  53  77 NW6       29.91R                  
$$

NHZ002-005-008-009-011-012-014-161200-
NEW HAMPSHIRE
  
CITY           SKY/WX    TMP DP  RH WIND       PRES   REMARKS
PORTSMOUTH     MOSUNNY   72  67  85 SW3       29.94R                  
ROCHESTER      FAIR      71  68  90 CALM      29.95R                  
MANCHESTER     NOT AVBL                                               
CONCORD        FAIR      68  66  93 CALM      29.97R                  
LACONIA        FAIR      69  65  86 W7        29.98R                  
PLYMOUTH       CLOUDY    66  64  93 W3        29.98R                  
BERLIN         CLOUDY    65  64  97 CALM      29.99R                  
WHITEFIELD     CLOUDY    68  66  93 CALM      30.00R                  
JAFFREY        NOT AVBL                                               
LEBANON        FOG       69  66  90 CALM      29.97S VSB 1/4          
MT WASHINGTON  RAIN      52  52 100 W32G39      N/A  VSB 1/16         
$$

VTZ005-007-008-161200-
VERMONT
  
CITY           SKY/WX    TMP DP  RH WIND       PRES   REMARKS
ST JOHNSBURY     N/A     67  67 100 MISG      29.97R                  
MONTPELIER     CLOUDY    65  64  97 W6        30.05R                  
BURLINGTON     PTSUNNY   68  65  90 CALM      30.00R                  
$$

MAZ007-012-024-CTZ003-RIZ002-NYZ038-NYZ072-161200-
SOUTHERN NEW ENGLAND AND NY
  
CITY           SKY/WX    TMP DP  RH WIND       PRES   REMARKS
BOSTON         FAIR      78  69  73 W6        29.96R                  
WORCESTER      FAIR      70  67  90 W10       30.02R                  
NANTUCKET      FAIR      73  71  93 W7        29.97R                  
PROVIDENCE     FAIR      74  68  81 W7        29.99R                  
HARTFORD       FAIR      72  68  87 CALM      30.00R                  
ALBANY         FAIR      73  66  78 W6        30.01R                  
NEW YORK CITY  FAIR      79  68  69 NW8       30.02R                  
$$

ANZ081-ANZ082-ANZ150-NHZ014-MEZ023>029-161200-
COASTAL MARINE OBSERVATIONS
  
STATION/POSITION TIME  TEMP    WIND        PRES    WAVE
                       AIR SEA DIR/SP/G            HT/PER
                 (UTC) (F)     (DEG/KT/KT) (MB)    (FT/S)
MOUNT DESERT ROC 1100   61     240/  9/  9 1013.1R
MATINICUS ROCK   1000   65      CALM  /  1 1012.4R
ISLE OF SHOALS   1000   71     250/ 11/ 12 1013.2R
JEFFREYS LEDGE   1006      69                N/A     2/ 8
$$

.............KEY..............
   WCI - WIND CHILL
   TC  - TEMPERATURE IN CELSIUS
   VSB - VISIBILITY IN MILES
   HX  - HEAT INDEX
   FAIR- INDICATES FEW OR NO CLOUDS BELOW 12,000 FT, WITH NO 
         SIGNIFICANT WEATHER AND/OR OBSTRUCTIONS TO VISIBILITY.